OneWeb SL0229

operational
NORAD ID: 48779 Int'l Des: 2021-045 Owner: ONEWEBN Country: UK Constellation: oneweb
LEOCIRCULARPOLARONEWEB_TYPE

About OneWeb SL0229

Description loading...

Live Position

Loading 3D Globe...

Upcoming Passes

Altitude History

Altitude vs Time

uPlot chart will show altitude changes over time

Two-Line Element Set

1 48779U 21045N 26036.63468168 -.00000073 00000-0 -22695-3 0 9995
2 48779 87.8995 285.4486 0001421 75.3868 284.7420 13.15548846227110
Epoch: Feb 5, 2026 • Age: 16 hours

Current Status

Altitude 1206.0 km
Velocity 7.25 km/s
Sub-Earth Point -8.53°S, 34.28°E
Launch Date May 28, 2021
Age 4.6 years
Type internet

Technical Details

Classification Payload
Mass 148.00 kg
Dry Mass 140.00 kg
Total Mass 148.00 kg
Length 1.30 m
Diameter 1.00 m
Span 5.00 m
Shape Trapezoid+2 pan
Manufacturer ONEWUS
Bus Type ARROW
Phase Status In Orbit
Owner/State ONEWEBN/UK

Large Constellations

Loading constellations...